Year,Month,Day,Hour,Minute,Value (Times are PST for temperature in C)
2007,06,23,00,00,9.70
2007,06,23,00,01,9.70
2007,06,23,00,02,9.70
2007,06,23,00,03,9.70
2007,06,23,00,04,9.70
2007,06,23,00,05,9.70
2007,06,23,00,06,9.70
2007,06,23,00,07,9.70
2007,06,23,00,08,9.70
2007,06,23,00,09,9.80
2007,06,23,00,10,9.80
2007,06,23,00,11,9.80
2007,06,23,00,12,9.80
2007,06,23,00,13,9.80
2007,06,23,00,14,9.80
2007,06,23,00,15,9.90
2007,06,23,00,16,9.90
2007,06,23,00,17,9.90
2007,06,23,00,18,9.90
2007,06,23,00,19,10.00
2007,06,23,00,20,10.10
2007,06,23,00,21,10.10
2007,06,23,00,22,10.10
2007,06,23,00,23,10.10
2007,06,23,00,24,10.10
2007,06,23,00,25,10.10
2007,06,23,00,26,10.10
2007,06,23,00,27,9.90
2007,06,23,00,28,9.90
2007,06,23,00,29,9.90
2007,06,23,00,30,9.90
2007,06,23,00,31,9.90
2007,06,23,00,32,9.90
2007,06,23,00,33,9.90
2007,06,23,00,34,9.90
2007,06,23,00,35,9.90
2007,06,23,00,36,9.90
2007,06,23,00,37,9.90
2007,06,23,00,38,9.90
2007,06,23,00,39,9.90
2007,06,23,00,40,9.90
2007,06,23,00,41,9.90
2007,06,23,00,42,9.90
2007,06,23,00,43,9.90
2007,06,23,00,44,9.80
2007,06,23,00,45,9.80
2007,06,23,00,46,9.80
2007,06,23,00,47,9.80
2007,06,23,00,48,9.70
2007,06,23,00,49,9.70
2007,06,23,00,50,9.70
2007,06,23,00,51,9.70
2007,06,23,00,52,9.70
2007,06,23,00,53,9.70
2007,06,23,00,54,9.70
2007,06,23,00,55,9.70
2007,06,23,00,56,9.70
2007,06,23,00,57,9.60
2007,06,23,00,58,9.60
2007,06,23,00,59,9.60
2007,06,23,01,00,9.60
2007,06,23,01,01,9.50
2007,06,23,01,02,9.50
2007,06,23,01,03,9.50
2007,06,23,01,04,9.40
2007,06,23,01,05,9.40
2007,06,23,01,06,9.30
2007,06,23,01,07,9.30
2007,06,23,01,08,9.30
2007,06,23,01,09,9.20
2007,06,23,01,10,9.20
2007,06,23,01,11,9.20
2007,06,23,01,12,9.20
2007,06,23,01,13,9.20
2007,06,23,01,14,9.20
2007,06,23,01,15,9.10
2007,06,23,01,16,9.10
2007,06,23,01,17,9.10
2007,06,23,01,18,9.10
2007,06,23,01,19,9.10
2007,06,23,01,20,9.00
2007,06,23,01,21,9.00
2007,06,23,01,22,9.00
2007,06,23,01,23,8.90
2007,06,23,01,24,8.90
2007,06,23,01,25,8.90
2007,06,23,01,26,8.90
2007,06,23,01,27,8.80
2007,06,23,01,28,8.80
2007,06,23,01,29,8.80
2007,06,23,01,30,8.70
2007,06,23,01,31,8.70
2007,06,23,01,32,8.70
2007,06,23,01,33,8.70
2007,06,23,01,34,8.70
2007,06,23,01,35,8.70
2007,06,23,01,36,8.70
2007,06,23,01,37,8.70
2007,06,23,01,38,8.60
2007,06,23,01,39,8.60
2007,06,23,01,40,8.60
2007,06,23,01,41,8.60
2007,06,23,01,42,8.60
2007,06,23,01,43,8.60
2007,06,23,01,44,8.50
2007,06,23,01,45,8.50
2007,06,23,01,46,8.50
2007,06,23,01,47,8.50
2007,06,23,01,48,8.50
2007,06,23,01,49,8.50
2007,06,23,01,50,8.50
2007,06,23,01,51,8.50
2007,06,23,01,52,8.50
2007,06,23,01,53,8.50
2007,06,23,01,54,8.40
2007,06,23,01,55,8.40
2007,06,23,01,56,8.40
2007,06,23,01,57,8.40
2007,06,23,01,58,8.40
2007,06,23,01,59,8.40
2007,06,23,02,00,8.40
2007,06,23,02,01,8.40
2007,06,23,02,02,8.40
2007,06,23,02,03,8.40
2007,06,23,02,04,8.40
2007,06,23,02,05,8.40
2007,06,23,02,06,8.40
2007,06,23,02,07,8.30
2007,06,23,02,08,8.30
2007,06,23,02,09,8.30
2007,06,23,02,10,8.30
2007,06,23,02,11,8.30
2007,06,23,02,12,8.30
2007,06,23,02,13,8.30
2007,06,23,02,14,8.20
2007,06,23,02,15,8.20
2007,06,23,02,16,8.20
2007,06,23,02,17,8.20
2007,06,23,02,18,8.20
2007,06,23,02,19,8.20
2007,06,23,02,20,8.20
2007,06,23,02,21,8.20
2007,06,23,02,22,8.20
2007,06,23,02,23,8.20
2007,06,23,02,24,8.20
2007,06,23,02,25,8.20
2007,06,23,02,26,8.20
2007,06,23,02,27,8.20
2007,06,23,02,28,8.10
2007,06,23,02,29,8.10
2007,06,23,02,30,8.10
2007,06,23,02,31,8.10
2007,06,23,02,32,8.10
2007,06,23,02,33,8.00
2007,06,23,02,34,8.00
2007,06,23,02,35,8.00
2007,06,23,02,36,8.00
2007,06,23,02,37,8.00
2007,06,23,02,38,8.00
2007,06,23,02,39,8.00
2007,06,23,02,40,8.00
2007,06,23,02,41,8.00
2007,06,23,02,42,8.00
2007,06,23,02,43,8.00
2007,06,23,02,44,8.00
2007,06,23,02,45,7.90
2007,06,23,02,46,7.90
2007,06,23,02,47,7.90
2007,06,23,02,48,7.90
2007,06,23,02,49,7.90
2007,06,23,02,50,7.90
2007,06,23,02,51,7.90
2007,06,23,02,52,7.90
2007,06,23,02,53,7.90
2007,06,23,02,54,7.90
2007,06,23,02,55,7.90
2007,06,23,02,56,7.90
2007,06,23,02,57,7.90
2007,06,23,02,58,7.90
2007,06,23,02,59,7.90
2007,06,23,03,00,7.90
2007,06,23,03,01,7.90
2007,06,23,03,02,7.90
2007,06,23,03,03,7.90
2007,06,23,03,04,7.90
2007,06,23,03,05,7.90
2007,06,23,03,06,7.90
2007,06,23,03,07,7.90
2007,06,23,03,08,8.00
2007,06,23,03,09,8.10
2007,06,23,03,10,8.10
2007,06,23,03,11,8.20
2007,06,23,03,12,8.20
2007,06,23,03,13,8.20
2007,06,23,03,14,8.20
2007,06,23,03,15,8.20
2007,06,23,03,16,8.20
2007,06,23,03,17,8.20
2007,06,23,03,18,8.20
2007,06,23,03,19,8.20
2007,06,23,03,20,8.20
2007,06,23,03,21,8.20
2007,06,23,03,22,8.20
2007,06,23,03,23,8.20
2007,06,23,03,24,8.20
2007,06,23,03,25,8.20
2007,06,23,03,26,8.20
2007,06,23,03,27,8.20
2007,06,23,03,28,8.30
2007,06,23,03,29,8.40
2007,06,23,03,30,8.40
2007,06,23,03,31,8.40
2007,06,23,03,32,8.40
2007,06,23,03,33,8.40
2007,06,23,03,34,8.40
2007,06,23,03,35,8.40
2007,06,23,03,36,8.40
2007,06,23,03,37,8.40
2007,06,23,03,38,8.40
2007,06,23,03,39,8.40
2007,06,23,03,40,8.40
2007,06,23,03,41,8.40
2007,06,23,03,42,8.40
2007,06,23,03,43,8.40
2007,06,23,03,44,8.40
2007,06,23,03,45,8.30
2007,06,23,03,46,8.30
2007,06,23,03,47,8.30
2007,06,23,03,48,8.30
2007,06,23,03,49,8.30
2007,06,23,03,50,8.30
2007,06,23,03,51,8.30
2007,06,23,03,52,8.30
2007,06,23,03,53,8.20
2007,06,23,03,54,8.20
2007,06,23,03,55,8.20
2007,06,23,03,56,8.20
2007,06,23,03,57,8.20
2007,06,23,03,58,8.30
2007,06,23,03,59,8.30
2007,06,23,04,00,8.30
2007,06,23,04,01,8.30
2007,06,23,04,02,8.40
2007,06,23,04,03,8.40
2007,06,23,04,04,8.40
2007,06,23,04,05,8.40
2007,06,23,04,06,8.40
2007,06,23,04,07,8.40
2007,06,23,04,08,8.40
2007,06,23,04,09,8.30
2007,06,23,04,10,8.30
2007,06,23,04,11,8.30
2007,06,23,04,12,8.30
2007,06,23,04,13,8.30
2007,06,23,04,14,8.30
2007,06,23,04,15,8.30
2007,06,23,04,16,8.40
2007,06,23,04,17,8.40
2007,06,23,04,18,8.40
2007,06,23,04,19,8.40
2007,06,23,04,20,8.40
2007,06,23,04,21,8.40
2007,06,23,04,22,8.40
2007,06,23,04,23,8.40
2007,06,23,04,24,8.40
2007,06,23,04,25,8.40
2007,06,23,04,26,8.40
2007,06,23,04,27,8.40
2007,06,23,04,28,8.40
2007,06,23,04,29,8.40
2007,06,23,04,30,8.40
2007,06,23,04,31,8.40
2007,06,23,04,32,8.40
2007,06,23,04,33,8.30
2007,06,23,04,34,8.30
2007,06,23,04,35,8.30
2007,06,23,04,36,8.30
2007,06,23,04,37,8.30
2007,06,23,04,38,8.30
2007,06,23,04,39,8.30
2007,06,23,04,40,8.40
2007,06,23,04,41,8.40
2007,06,23,04,42,8.40
2007,06,23,04,43,8.40
2007,06,23,04,44,8.40
2007,06,23,04,45,8.40
2007,06,23,04,46,8.40
2007,06,23,04,47,8.40
2007,06,23,04,48,8.40
2007,06,23,04,49,8.40
2007,06,23,04,50,8.40
2007,06,23,04,51,8.40
2007,06,23,04,52,8.40
2007,06,23,04,53,8.40
2007,06,23,04,54,8.40
2007,06,23,04,55,8.50
2007,06,23,04,56,8.50
2007,06,23,04,57,8.50
2007,06,23,04,58,8.50
2007,06,23,04,59,8.50
2007,06,23,05,00,8.60
2007,06,23,05,01,8.60
2007,06,23,05,02,8.60
2007,06,23,05,03,8.60
2007,06,23,05,04,8.70
2007,06,23,05,05,8.70
2007,06,23,05,06,8.70
2007,06,23,05,07,8.70
2007,06,23,05,08,8.70
2007,06,23,05,09,8.70
2007,06,23,05,10,8.70
2007,06,23,05,11,8.80
2007,06,23,05,12,8.80
2007,06,23,05,13,8.80
2007,06,23,05,14,8.80
2007,06,23,05,15,8.80
2007,06,23,05,16,8.90
2007,06,23,05,17,8.90
2007,06,23,05,18,8.90
2007,06,23,05,19,9.00
2007,06,23,05,20,9.00
2007,06,23,05,21,9.00
2007,06,23,05,22,9.10
2007,06,23,05,23,9.10
2007,06,23,05,24,9.10
2007,06,23,05,25,9.10
2007,06,23,05,26,9.10
2007,06,23,05,27,9.20
2007,06,23,05,28,9.20
2007,06,23,05,29,9.20
2007,06,23,05,30,9.20
2007,06,23,05,31,9.20
2007,06,23,05,32,9.20
2007,06,23,05,33,9.20
2007,06,23,05,34,9.20
2007,06,23,05,35,9.20
2007,06,23,05,36,9.20
2007,06,23,05,37,9.20
2007,06,23,05,38,9.20
2007,06,23,05,39,9.30
2007,06,23,05,40,9.30
2007,06,23,05,41,9.30
2007,06,23,05,42,9.30
2007,06,23,05,43,9.40
2007,06,23,05,44,9.40
2007,06,23,05,45,9.50
2007,06,23,05,46,9.50
2007,06,23,05,47,9.50
2007,06,23,05,48,9.50
2007,06,23,05,49,9.50
2007,06,23,05,50,9.50
2007,06,23,05,51,9.60
2007,06,23,05,52,9.60
2007,06,23,05,53,9.60
2007,06,23,05,54,9.60
2007,06,23,05,55,9.60
2007,06,23,05,56,9.60
2007,06,23,05,57,9.60
2007,06,23,05,58,9.60
2007,06,23,05,59,9.70
2007,06,23,06,00,9.70
2007,06,23,06,01,9.70
2007,06,23,06,02,9.70
2007,06,23,06,03,9.70
2007,06,23,06,04,9.70
2007,06,23,06,05,9.70
2007,06,23,06,06,9.70
2007,06,23,06,07,9.70
2007,06,23,06,08,9.70
2007,06,23,06,09,9.70
2007,06,23,06,10,9.80
2007,06,23,06,11,9.80
2007,06,23,06,12,9.80
2007,06,23,06,13,9.90
2007,06,23,06,14,9.90
2007,06,23,06,15,9.90
2007,06,23,06,16,9.90
2007,06,23,06,17,9.90
2007,06,23,06,18,10.00
2007,06,23,06,19,10.10
2007,06,23,06,20,10.10
2007,06,23,06,21,10.10
2007,06,23,06,22,10.10
2007,06,23,06,23,10.10
2007,06,23,06,24,10.20
2007,06,23,06,25,10.20
2007,06,23,06,26,10.20
2007,06,23,06,27,10.30
2007,06,23,06,28,10.30
2007,06,23,06,29,10.30
2007,06,23,06,30,10.30
2007,06,23,06,31,10.40
2007,06,23,06,32,10.40
2007,06,23,06,33,10.40
2007,06,23,06,34,10.40
2007,06,23,06,35,10.50
2007,06,23,06,36,10.60
2007,06,23,06,37,10.60
2007,06,23,06,38,10.60
2007,06,23,06,39,10.60
2007,06,23,06,40,10.60
2007,06,23,06,41,10.60
2007,06,23,06,42,10.60
2007,06,23,06,43,10.70
2007,06,23,06,44,10.70
2007,06,23,06,45,10.80
2007,06,23,06,46,10.80
2007,06,23,06,47,10.80
2007,06,23,06,48,10.80
2007,06,23,06,49,10.90
2007,06,23,06,50,10.90
2007,06,23,06,51,10.90
2007,06,23,06,52,10.90
2007,06,23,06,53,10.80
2007,06,23,06,54,10.90
2007,06,23,06,55,10.90
2007,06,23,06,56,10.90
2007,06,23,06,57,10.90
2007,06,23,06,58,10.90
2007,06,23,06,59,10.90
2007,06,23,07,00,10.90
2007,06,23,07,01,10.90
2007,06,23,07,02,10.90
2007,06,23,07,03,10.90
2007,06,23,07,04,10.90
2007,06,23,07,05,10.80
2007,06,23,07,06,10.80
2007,06,23,07,07,10.80
2007,06,23,07,08,10.80
2007,06,23,07,09,10.80
2007,06,23,07,10,10.80
2007,06,23,07,11,10.80
2007,06,23,07,12,10.80
2007,06,23,07,13,10.70
2007,06,23,07,14,10.70
2007,06,23,07,15,10.70
2007,06,23,07,16,10.70
2007,06,23,07,17,10.70
2007,06,23,07,18,10.70
2007,06,23,07,19,10.70
2007,06,23,07,20,10.70
2007,06,23,07,21,10.60
2007,06,23,07,22,10.60
2007,06,23,07,23,10.60
2007,06,23,07,24,10.60
2007,06,23,07,25,10.60
2007,06,23,07,26,10.60
2007,06,23,07,27,10.60
2007,06,23,07,28,10.60
2007,06,23,07,29,10.60
2007,06,23,07,30,10.60
2007,06,23,07,31,10.60
2007,06,23,07,32,10.60
2007,06,23,07,33,10.60
2007,06,23,07,34,10.70
2007,06,23,07,35,10.80
2007,06,23,07,36,10.90
2007,06,23,07,37,10.90
2007,06,23,07,38,11.10
2007,06,23,07,39,11.10
2007,06,23,07,40,11.20
2007,06,23,07,41,11.30
2007,06,23,07,42,11.40
2007,06,23,07,43,11.60
2007,06,23,07,44,11.60
2007,06,23,07,45,11.70
2007,06,23,07,46,11.60
2007,06,23,07,47,11.60
2007,06,23,07,48,11.70
2007,06,23,07,49,11.70
2007,06,23,07,50,11.70
2007,06,23,07,51,11.70
2007,06,23,07,52,11.70
2007,06,23,07,53,11.70
2007,06,23,07,54,11.70
2007,06,23,07,55,11.70
2007,06,23,07,56,11.80
2007,06,23,07,57,11.80
2007,06,23,07,58,11.80
2007,06,23,07,59,11.80
2007,06,23,08,00,11.80
2007,06,23,08,01,11.70
2007,06,23,08,02,11.70
2007,06,23,08,03,11.70
2007,06,23,08,04,11.70
2007,06,23,08,05,11.70
2007,06,23,08,06,11.80
2007,06,23,08,07,11.80
2007,06,23,08,08,11.80
2007,06,23,08,09,11.80
2007,06,23,08,10,11.80
2007,06,23,08,11,11.90
2007,06,23,08,12,11.90
2007,06,23,08,13,12.00
2007,06,23,08,14,12.00
2007,06,23,08,15,12.10
2007,06,23,08,16,12.00
2007,06,23,08,17,12.00
2007,06,23,08,18,12.00
2007,06,23,08,19,11.90
2007,06,23,08,20,11.90
2007,06,23,08,21,11.90
2007,06,23,08,22,12.00
2007,06,23,08,23,12.00
2007,06,23,08,24,12.00
2007,06,23,08,25,12.00
2007,06,23,08,26,12.00
2007,06,23,08,27,12.10
2007,06,23,08,28,12.10
2007,06,23,08,29,12.20
2007,06,23,08,30,12.30
2007,06,23,08,31,12.30
2007,06,23,08,32,12.30
2007,06,23,08,33,12.40
2007,06,23,08,34,12.40
2007,06,23,08,35,12.50
2007,06,23,08,36,12.50
2007,06,23,08,37,12.50
2007,06,23,08,38,12.50
2007,06,23,08,39,12.50
2007,06,23,08,40,12.50
2007,06,23,08,41,12.50
2007,06,23,08,42,12.50
2007,06,23,08,43,12.60
2007,06,23,08,44,12.60
2007,06,23,08,45,12.70
2007,06,23,08,46,12.70
2007,06,23,08,47,12.80
2007,06,23,08,48,12.90
2007,06,23,08,49,13.00
2007,06,23,08,50,13.10
2007,06,23,08,51,13.20
2007,06,23,08,52,13.20
2007,06,23,08,53,13.30
2007,06,23,08,54,13.30
2007,06,23,08,55,13.30
2007,06,23,08,56,13.30
2007,06,23,08,57,13.30
2007,06,23,08,58,13.40
2007,06,23,08,59,13.40
2007,06,23,09,00,13.30
2007,06,23,09,01,13.30
2007,06,23,09,02,13.30
2007,06,23,09,03,13.30
2007,06,23,09,04,13.30
2007,06,23,09,05,13.50
2007,06,23,09,06,13.60
2007,06,23,09,07,13.60
2007,06,23,09,08,13.80
2007,06,23,09,09,13.90
2007,06,23,09,10,13.90
2007,06,23,09,11,13.90
2007,06,23,09,12,13.90
2007,06,23,09,13,13.90
2007,06,23,09,14,13.80
2007,06,23,09,15,13.70
2007,06,23,09,16,13.70
2007,06,23,09,17,13.60
2007,06,23,09,18,13.70
2007,06,23,09,19,13.70
2007,06,23,09,20,13.70
2007,06,23,09,21,13.70
2007,06,23,09,22,13.70
2007,06,23,09,23,13.70
2007,06,23,09,24,13.70
2007,06,23,09,25,13.70
2007,06,23,09,26,13.60
2007,06,23,09,27,13.60
2007,06,23,09,28,13.40
2007,06,23,09,29,13.30
2007,06,23,09,30,13.30
2007,06,23,09,31,13.30
2007,06,23,09,32,13.20
2007,06,23,09,33,13.10
2007,06,23,09,34,13.10
2007,06,23,09,35,13.10
2007,06,23,09,36,13.00
2007,06,23,09,37,12.90
2007,06,23,09,38,12.90
2007,06,23,09,39,12.90
2007,06,23,09,40,12.80
2007,06,23,09,41,12.80
2007,06,23,09,42,12.80
2007,06,23,09,43,12.80
2007,06,23,09,44,12.80
2007,06,23,09,45,12.80
2007,06,23,09,46,12.80
2007,06,23,09,47,12.80
2007,06,23,09,48,12.80
2007,06,23,09,49,12.80
2007,06,23,09,50,12.80
2007,06,23,09,51,12.80
2007,06,23,09,52,12.80
2007,06,23,09,53,12.80
2007,06,23,09,54,12.80
2007,06,23,09,55,12.80
2007,06,23,09,56,12.80
2007,06,23,09,57,12.80
2007,06,23,09,58,12.80
2007,06,23,09,59,12.80
2007,06,23,10,00,12.80
2007,06,23,10,01,12.80
2007,06,23,10,02,12.80
2007,06,23,10,03,12.80
2007,06,23,10,04,12.80
2007,06,23,10,05,12.80
2007,06,23,10,06,12.90
2007,06,23,10,07,12.90
2007,06,23,10,08,12.90
2007,06,23,10,09,13.00
2007,06,23,10,10,13.10
2007,06,23,10,11,13.10
2007,06,23,10,12,13.10
2007,06,23,10,13,13.20
2007,06,23,10,14,13.20
2007,06,23,10,15,13.20
2007,06,23,10,16,13.20
2007,06,23,10,17,13.20
2007,06,23,10,18,13.20
2007,06,23,10,19,13.20
2007,06,23,10,20,13.20
2007,06,23,10,21,13.30
2007,06,23,10,22,13.30
2007,06,23,10,23,13.40
2007,06,23,10,24,13.50
2007,06,23,10,25,13.60
2007,06,23,10,26,13.70
2007,06,23,10,27,13.70
2007,06,23,10,28,13.70
2007,06,23,10,29,13.70
2007,06,23,10,30,13.80
2007,06,23,10,31,13.80
2007,06,23,10,32,13.80
2007,06,23,10,33,13.70
2007,06,23,10,34,13.70
2007,06,23,10,35,13.70
2007,06,23,10,36,13.70
2007,06,23,10,37,13.70
2007,06,23,10,38,13.70
2007,06,23,10,39,13.70
2007,06,23,10,40,13.70
2007,06,23,10,41,13.70
2007,06,23,10,42,13.70
2007,06,23,10,43,13.70
2007,06,23,10,44,13.70
2007,06,23,10,45,13.70
2007,06,23,10,46,13.70
2007,06,23,10,47,13.80
2007,06,23,10,48,13.80
2007,06,23,10,49,13.90
2007,06,23,10,50,13.90
2007,06,23,10,51,14.00
2007,06,23,10,52,14.00
2007,06,23,10,53,14.00
2007,06,23,10,54,14.10
2007,06,23,10,55,14.20
2007,06,23,10,56,14.20
2007,06,23,10,57,14.30
2007,06,23,10,58,14.30
2007,06,23,10,59,14.30
2007,06,23,11,00,14.20
2007,06,23,11,01,14.20
2007,06,23,11,02,14.10
2007,06,23,11,03,14.10
2007,06,23,11,04,14.10
2007,06,23,11,05,14.10
2007,06,23,11,06,14.10
2007,06,23,11,07,14.10
2007,06,23,11,08,14.10
2007,06,23,11,09,14.10
2007,06,23,11,10,14.10
2007,06,23,11,11,14.10
2007,06,23,11,12,14.10
2007,06,23,11,13,14.00
2007,06,23,11,14,14.00
2007,06,23,11,15,14.00
2007,06,23,11,16,13.90
2007,06,23,11,17,13.90
2007,06,23,11,18,13.90
2007,06,23,11,19,13.90
2007,06,23,11,20,14.00
2007,06,23,11,21,14.00
2007,06,23,11,22,14.10
2007,06,23,11,23,14.20
2007,06,23,11,24,14.20
2007,06,23,11,25,14.20
2007,06,23,11,26,14.20
2007,06,23,11,27,14.30
2007,06,23,11,28,14.30
2007,06,23,11,29,14.30
2007,06,23,11,30,14.30
2007,06,23,11,31,14.30
2007,06,23,11,32,14.30
2007,06,23,11,33,14.30
2007,06,23,11,34,14.30
2007,06,23,11,35,14.30
2007,06,23,11,36,14.40
2007,06,23,11,37,14.40
2007,06,23,11,38,14.50
2007,06,23,11,39,14.60
2007,06,23,11,40,14.70
2007,06,23,11,41,14.80
2007,06,23,11,42,14.80
2007,06,23,11,43,14.80
2007,06,23,11,44,14.90
2007,06,23,11,45,15.10
2007,06,23,11,46,15.10
2007,06,23,11,47,15.30
2007,06,23,11,48,15.50
2007,06,23,11,49,15.50
2007,06,23,11,50,15.50
2007,06,23,11,51,15.50
2007,06,23,11,52,15.40
2007,06,23,11,53,15.30
2007,06,23,11,54,15.30
2007,06,23,11,55,15.30
2007,06,23,11,56,15.30
2007,06,23,11,57,15.10
2007,06,23,11,58,15.10
2007,06,23,11,59,15.10
2007,06,23,12,00,15.10
2007,06,23,12,01,15.10
2007,06,23,12,02,15.20
2007,06,23,12,03,15.20
2007,06,23,12,04,15.20
2007,06,23,12,05,15.20
2007,06,23,12,06,15.30
2007,06,23,12,07,15.20
2007,06,23,12,08,15.20
2007,06,23,12,09,15.10
2007,06,23,12,10,15.10
2007,06,23,12,11,15.10
2007,06,23,12,12,15.00
2007,06,23,12,13,15.00
2007,06,23,12,14,15.00
2007,06,23,12,15,14.90
2007,06,23,12,16,14.80
2007,06,23,12,17,14.80
2007,06,23,12,18,14.90
2007,06,23,12,19,14.90
2007,06,23,12,20,14.90
2007,06,23,12,21,14.90
2007,06,23,12,22,14.90
2007,06,23,12,23,14.90
2007,06,23,12,24,14.80
2007,06,23,12,25,14.80
2007,06,23,12,26,14.90
2007,06,23,12,27,14.90
2007,06,23,12,28,14.90
2007,06,23,12,29,14.90
2007,06,23,12,30,14.80
2007,06,23,12,31,14.90
2007,06,23,12,32,15.00
2007,06,23,12,33,15.10
2007,06,23,12,34,15.20
2007,06,23,12,35,15.20
2007,06,23,12,36,15.20
2007,06,23,12,37,15.30
2007,06,23,12,38,15.30
2007,06,23,12,39,15.30
2007,06,23,12,40,15.20
2007,06,23,12,41,15.20
2007,06,23,12,42,15.20
2007,06,23,12,43,15.20
2007,06,23,12,44,15.10
2007,06,23,12,45,15.00
2007,06,23,12,46,15.00
2007,06,23,12,47,15.00
2007,06,23,12,48,15.00
2007,06,23,12,49,15.00
2007,06,23,12,50,15.10
2007,06,23,12,51,15.20
2007,06,23,12,52,15.30
2007,06,23,12,53,15.30
2007,06,23,12,54,15.30
2007,06,23,12,55,15.30
2007,06,23,12,56,15.40
2007,06,23,12,57,15.50
2007,06,23,12,58,15.60
2007,06,23,12,59,15.80
2007,06,23,13,00,15.90
2007,06,23,13,01,15.90
2007,06,23,13,02,15.80
2007,06,23,13,03,15.80
2007,06,23,13,04,15.80
2007,06,23,13,05,15.90
2007,06,23,13,06,15.90
2007,06,23,13,07,15.80
2007,06,23,13,08,15.80
2007,06,23,13,09,15.80
2007,06,23,13,10,15.70
2007,06,23,13,11,15.70
2007,06,23,13,12,15.70
2007,06,23,13,13,15.60
2007,06,23,13,14,15.60
2007,06,23,13,15,15.60
2007,06,23,13,16,15.50
2007,06,23,13,17,15.50
2007,06,23,13,18,15.60
2007,06,23,13,19,15.70
2007,06,23,13,20,15.70
2007,06,23,13,21,15.80
2007,06,23,13,22,15.90
2007,06,23,13,23,15.90
2007,06,23,13,24,15.90
2007,06,23,13,25,15.90
2007,06,23,13,26,15.90
2007,06,23,13,27,15.90
2007,06,23,13,28,15.90
2007,06,23,13,29,15.80
2007,06,23,13,30,15.80
2007,06,23,13,31,15.80
2007,06,23,13,32,15.80
2007,06,23,13,33,15.70
2007,06,23,13,34,15.70
2007,06,23,13,35,15.70
2007,06,23,13,36,15.70
2007,06,23,13,37,15.80
2007,06,23,13,38,15.70
2007,06,23,13,39,15.80
2007,06,23,13,40,15.80
2007,06,23,13,41,15.70
2007,06,23,13,42,15.60
2007,06,23,13,43,15.60
2007,06,23,13,44,15.50
2007,06,23,13,45,15.50
2007,06,23,13,46,15.50
2007,06,23,13,47,15.60
2007,06,23,13,48,15.60
2007,06,23,13,49,15.60
2007,06,23,13,50,15.60
2007,06,23,13,51,15.60
2007,06,23,13,52,15.50
2007,06,23,13,53,15.60
2007,06,23,13,54,15.60
2007,06,23,13,55,15.70
2007,06,23,13,56,15.70
2007,06,23,13,57,15.80
2007,06,23,13,58,15.80
2007,06,23,13,59,15.80
2007,06,23,14,00,15.80
2007,06,23,14,01,15.80
2007,06,23,14,02,15.80
2007,06,23,14,03,15.80
2007,06,23,14,04,15.80
2007,06,23,14,05,15.80
2007,06,23,14,06,15.80
2007,06,23,14,07,15.90
2007,06,23,14,08,15.90
2007,06,23,14,09,15.80
2007,06,23,14,10,15.90
2007,06,23,14,11,16.00
2007,06,23,14,12,16.10
2007,06,23,14,13,16.20
2007,06,23,14,14,16.20
2007,06,23,14,15,16.20
2007,06,23,14,16,16.20
2007,06,23,14,17,16.30
2007,06,23,14,18,16.40
2007,06,23,14,19,16.40
2007,06,23,14,20,16.50
2007,06,23,14,21,16.70
2007,06,23,14,22,16.80
2007,06,23,14,23,16.90
2007,06,23,14,24,17.00
2007,06,23,14,25,17.00
2007,06,23,14,26,17.00
2007,06,23,14,27,16.80
2007,06,23,14,28,16.70
2007,06,23,14,29,16.60
2007,06,23,14,30,16.60
2007,06,23,14,31,16.50
2007,06,23,14,32,16.40
2007,06,23,14,33,16.30
2007,06,23,14,34,16.30
2007,06,23,14,35,16.30
2007,06,23,14,36,16.40
2007,06,23,14,37,16.40
2007,06,23,14,38,16.40
2007,06,23,14,39,16.40
2007,06,23,14,40,16.40
2007,06,23,14,41,16.40
2007,06,23,14,42,16.30
2007,06,23,14,43,16.20
2007,06,23,14,44,16.10
2007,06,23,14,45,16.10
2007,06,23,14,46,16.10
2007,06,23,14,47,16.10
2007,06,23,14,48,16.10
2007,06,23,14,49,16.10
2007,06,23,14,50,16.10
2007,06,23,14,51,16.10
2007,06,23,14,52,16.20
2007,06,23,14,53,16.20
2007,06,23,14,54,16.30
2007,06,23,14,55,16.30
2007,06,23,14,56,16.40
2007,06,23,14,57,16.30
2007,06,23,14,58,16.40
2007,06,23,14,59,16.40
2007,06,23,15,00,16.40
2007,06,23,15,01,16.40
2007,06,23,15,02,16.40
2007,06,23,15,03,16.40
2007,06,23,15,04,16.40
2007,06,23,15,05,16.60
2007,06,23,15,06,16.60
2007,06,23,15,07,16.40
2007,06,23,15,08,16.40
2007,06,23,15,09,16.40
2007,06,23,15,10,16.30
2007,06,23,15,11,16.20
2007,06,23,15,12,16.20
2007,06,23,15,13,16.10
2007,06,23,15,14,16.00
2007,06,23,15,15,15.80
2007,06,23,15,16,15.80
2007,06,23,15,17,15.60
2007,06,23,15,18,15.50
2007,06,23,15,19,15.50
2007,06,23,15,20,15.40
2007,06,23,15,21,15.40
2007,06,23,15,22,15.30
2007,06,23,15,23,15.30
2007,06,23,15,24,15.30
2007,06,23,15,25,15.30
2007,06,23,15,26,15.30
2007,06,23,15,27,15.30
2007,06,23,15,28,15.30
2007,06,23,15,29,15.20
2007,06,23,15,30,15.10
2007,06,23,15,31,15.10
2007,06,23,15,32,15.10
2007,06,23,15,33,15.10
2007,06,23,15,34,15.10
2007,06,23,15,35,15.10
2007,06,23,15,36,15.10
2007,06,23,15,37,15.00
2007,06,23,15,38,15.00
2007,06,23,15,39,14.90
2007,06,23,15,40,14.80
2007,06,23,15,41,14.70
2007,06,23,15,42,14.70
2007,06,23,15,43,14.60
2007,06,23,15,44,14.60
2007,06,23,15,45,14.60
2007,06,23,15,46,14.60
2007,06,23,15,47,14.60
2007,06,23,15,48,14.60
2007,06,23,15,49,14.50
2007,06,23,15,50,14.40
2007,06,23,15,51,14.40
2007,06,23,15,52,14.30
2007,06,23,15,53,14.30
2007,06,23,15,54,14.40
2007,06,23,15,55,14.40
2007,06,23,15,56,14.40
2007,06,23,15,57,14.40
2007,06,23,15,58,14.50
2007,06,23,15,59,14.50
2007,06,23,16,00,14.50
2007,06,23,16,01,14.60
2007,06,23,16,02,14.60
2007,06,23,16,03,14.70
2007,06,23,16,04,14.70
2007,06,23,16,05,14.70
2007,06,23,16,06,14.70
2007,06,23,16,07,14.70
2007,06,23,16,08,14.60
2007,06,23,16,09,14.50
2007,06,23,16,10,14.50
2007,06,23,16,11,14.50
2007,06,23,16,12,14.50
2007,06,23,16,13,14.50
2007,06,23,16,14,14.60
2007,06,23,16,15,14.60
2007,06,23,16,16,14.60
2007,06,23,16,17,14.60
2007,06,23,16,18,14.60
2007,06,23,16,19,14.60
2007,06,23,16,20,14.60
2007,06,23,16,21,14.60
2007,06,23,16,22,14.60
2007,06,23,16,23,14.60
2007,06,23,16,24,14.60
2007,06,23,16,25,14.50
2007,06,23,16,26,14.50
2007,06,23,16,27,14.40
2007,06,23,16,28,14.30
2007,06,23,16,29,14.30
2007,06,23,16,30,14.30
2007,06,23,16,31,14.30
2007,06,23,16,32,14.20
2007,06,23,16,33,14.20
2007,06,23,16,34,14.20
2007,06,23,16,35,14.20
2007,06,23,16,36,14.30
2007,06,23,16,37,14.30
2007,06,23,16,38,14.40
2007,06,23,16,39,14.40
2007,06,23,16,40,14.40
2007,06,23,16,41,14.50
2007,06,23,16,42,14.60
2007,06,23,16,43,14.60
2007,06,23,16,44,14.60
2007,06,23,16,45,14.70
2007,06,23,16,46,14.70
2007,06,23,16,47,14.70
2007,06,23,16,48,14.70
2007,06,23,16,49,14.60
2007,06,23,16,50,14.60
2007,06,23,16,51,14.60
2007,06,23,16,52,14.60
2007,06,23,16,53,14.60
2007,06,23,16,54,14.70
2007,06,23,16,55,14.70
2007,06,23,16,56,14.70
2007,06,23,16,57,14.70
2007,06,23,16,58,14.70
2007,06,23,16,59,14.70
2007,06,23,17,00,14.80
2007,06,23,17,01,14.80
2007,06,23,17,02,14.80
2007,06,23,17,03,14.80
2007,06,23,17,04,14.70
2007,06,23,17,05,14.70
2007,06,23,17,06,14.70
2007,06,23,17,07,14.70
2007,06,23,17,08,14.70
2007,06,23,17,09,14.70
2007,06,23,17,10,14.80
2007,06,23,17,11,14.80
2007,06,23,17,12,14.80
2007,06,23,17,13,14.80
2007,06,23,17,14,14.80
2007,06,23,17,15,14.80
2007,06,23,17,16,14.80
2007,06,23,17,17,14.80
2007,06,23,17,18,14.80
2007,06,23,17,19,14.80
2007,06,23,17,20,14.80
2007,06,23,17,21,14.80
2007,06,23,17,22,14.80
2007,06,23,17,23,14.70
2007,06,23,17,24,14.70
2007,06,23,17,25,14.70
2007,06,23,17,26,14.70
2007,06,23,17,27,14.70
2007,06,23,17,28,14.70
2007,06,23,17,29,14.70
2007,06,23,17,30,14.70
2007,06,23,17,31,14.70
2007,06,23,17,32,14.70
2007,06,23,17,33,14.70
2007,06,23,17,34,14.70
2007,06,23,17,35,14.70